Time,TemperatureF,DewpointF,PressureIn,WindDirection,WindDirectionDegrees,WindSpeedMPH,WindSpeedGustMPH,Humidity,HourlyPrecipIn,Conditions,Clouds,dailyrainin,SoftwareType,DateUTC
2013-10-11 00:00:00,60.1,59.2,30.01,SSW,202,0.0,0.0,97,0.00,,---,0.00,VWS V13.01,2013-10-11 05:00:00,
2013-10-11 00:30:00,60.2,59.3,30.01,SSW,202,0.0,0.0,97,0.00,,---,0.00,VWS V13.01,2013-10-11 05:30:00,
2013-10-11 01:00:00,60.0,59.2,30.02,SSW,202,0.0,0.0,97,0.00,,---,0.00,VWS V13.01,2013-10-11 06:00:00,
2013-10-11 01:30:00,60.8,60.0,30.01,SSW,202,0.0,1.0,97,0.00,,---,0.00,VWS V13.01,2013-10-11 06:30:00,
2013-10-11 02:00:00,61.3,60.4,30.01,SSW,202,0.0,2.0,97,0.00,,---,0.00,VWS V13.01,2013-10-11 07:00:00,
2013-10-11 02:30:00,60.6,59.8,30.01,SSW,202,0.0,0.0,97,0.00,,---,0.00,VWS V13.01,2013-10-11 07:30:00,
2013-10-11 03:00:00,59.9,59.0,30.01,SSW,202,0.0,0.0,97,0.00,,---,0.00,VWS V13.01,2013-10-11 08:00:00,
2013-10-11 03:30:00,59.3,58.5,30.02,SSW,202,0.0,0.0,97,0.00,,---,0.00,VWS V13.01,2013-10-11 08:30:00,
2013-10-11 04:00:00,59.2,58.3,30.02,SSW,202,0.0,0.0,97,0.00,,---,0.00,VWS V13.01,2013-10-11 09:00:00,
2013-10-11 04:30:00,58.8,58.0,30.03,SSW,202,0.0,0.0,97,0.00,,---,0.00,VWS V13.01,2013-10-11 09:30:00,
2013-10-11 05:00:00,58.2,57.4,30.04,SSW,202,0.0,0.0,97,0.00,,---,0.00,VWS V13.01,2013-10-11 10:00:00,
2013-10-11 05:30:00,58.2,57.4,30.04,SSW,202,0.0,0.0,97,0.00,,---,0.00,VWS V13.01,2013-10-11 10:30:00,
2013-10-11 06:00:00,57.7,56.9,30.05,SSW,202,0.0,0.0,97,0.00,,---,0.00,VWS V13.01,2013-10-11 11:00:00,
2013-10-11 06:30:00,57.1,56.3,30.05,SSW,202,0.0,0.0,97,0.00,,---,0.00,VWS V13.01,2013-10-11 11:30:00,
2013-10-11 07:00:00,56.8,56.0,30.06,SSW,202,0.0,0.0,97,0.00,,---,0.00,VWS V13.01,2013-10-11 12:00:00,
2013-10-11 07:30:00,58.2,57.4,30.06,SSW,202,0.0,2.0,97,0.00,,---,0.00,VWS V13.01,2013-10-11 12:30:00,
2013-10-11 08:00:00,61.4,60.5,30.06,SSW,202,1.0,3.0,97,0.00,,---,0.00,VWS V13.01,2013-10-11 13:00:00,
2013-10-11 08:30:00,64.1,61.7,30.06,SSW,202,2.0,5.0,92,0.00,,---,0.00,VWS V13.01,2013-10-11 13:30:00,
2013-10-11 09:00:00,66.7,62.0,30.06,SSW,202,3.0,5.0,85,0.00,,---,0.00,VWS V13.01,2013-10-11 14:00:00,
2013-10-11 09:30:00,68.7,63.3,30.06,SSW,202,3.0,6.0,83,0.00,,---,0.00,VWS V13.01,2013-10-11 14:30:00,
2013-10-11 10:00:00,71.4,63.8,30.06,SSW,202,2.0,5.0,77,0.00,,---,0.00,VWS V13.01,2013-10-11 15:00:00,
2013-10-11 10:30:00,74.1,65.3,30.06,SSW,202,3.0,7.0,74,0.00,,---,0.00,VWS V13.01,2013-10-11 15:30:00,
2013-10-11 11:00:00,75.7,64.8,30.05,SSW,202,3.0,9.0,69,0.00,,---,0.00,VWS V13.01,2013-10-11 16:00:00,
2013-10-11 11:30:00,76.6,64.8,30.04,SSW,202,2.0,7.0,67,0.00,,---,0.00,VWS V13.01,2013-10-11 16:30:00,
2013-10-11 12:00:00,78.0,63.0,30.03,SSW,202,2.0,7.0,60,0.00,,---,0.00,VWS V13.01,2013-10-11 17:00:00,
2013-10-11 12:30:00,78.5,62.5,30.02,SSW,202,3.0,10.0,58,0.01,,---,0.01,VWS V13.01,2013-10-11 17:30:00,
2013-10-11 13:00:00,77.7,62.7,30.01,SSW,202,2.0,6.0,60,0.01,,---,0.01,VWS V13.01,2013-10-11 18:00:00,
2013-10-11 13:30:00,77.0,61.6,30.00,SSW,202,1.0,5.0,59,0.01,,---,0.01,VWS V13.01,2013-10-11 18:30:00,
2013-10-11 14:00:00,78.6,63.1,30.00,SSW,202,1.0,8.0,59,0.00,,---,0.01,VWS V13.01,2013-10-11 19:00:00,
2013-10-11 14:30:00,79.3,63.3,29.99,SSW,202,3.0,8.0,58,0.00,,---,0.01,VWS V13.01,2013-10-11 19:30:00,
2013-10-11 15:00:00,79.4,62.9,29.99,SSW,202,2.0,9.0,57,0.00,,---,0.01,VWS V13.01,2013-10-11 20:00:00,
2013-10-11 15:30:00,79.9,62.3,29.98,SSW,202,2.0,7.0,55,0.00,,---,0.01,VWS V13.01,2013-10-11 20:30:00,
2013-10-11 16:00:00,78.9,64.3,29.99,SSW,202,2.0,5.0,61,0.00,,---,0.01,VWS V13.01,2013-10-11 21:00:00,
2013-10-11 16:30:00,76.9,64.7,29.98,SSW,202,1.0,5.0,66,0.00,,---,0.01,VWS V13.01,2013-10-11 21:30:00,
2013-10-11 17:00:00,76.2,65.3,29.97,SSW,202,2.0,6.0,69,0.00,,---,0.01,VWS V13.01,2013-10-11 22:00:00,
2013-10-11 17:30:00,74.7,65.5,29.97,SSW,202,0.0,4.0,73,0.01,,---,0.02,VWS V13.01,2013-10-11 22:30:00,
2013-10-11 18:00:00,72.6,66.4,29.97,SSW,202,0.0,0.0,81,0.01,,---,0.02,VWS V13.01,2013-10-11 23:00:00,
2013-10-11 18:30:00,69.1,65.1,29.97,SSW,202,0.0,0.0,87,0.01,,---,0.02,VWS V13.01,2013-10-11 23:30:00,
2013-10-11 19:00:00,66.2,63.5,29.97,SSW,202,0.0,0.0,91,0.00,,---,0.02,VWS V13.01,2013-10-12 00:00:00,
2013-10-11 19:30:00,64.4,62.3,29.98,SSW,202,0.0,0.0,93,0.00,,---,0.02,VWS V13.01,2013-10-12 00:30:00,
2013-10-11 20:00:00,63.2,61.5,29.98,SSW,202,0.0,0.0,94,0.00,,---,0.02,VWS V13.01,2013-10-12 01:00:00,
2013-10-11 20:30:00,62.3,60.6,29.98,SSW,202,0.0,0.0,94,0.00,,---,0.02,VWS V13.01,2013-10-12 01:30:00,
2013-10-11 21:00:00,61.4,60.0,29.99,SSW,202,0.0,0.0,95,0.00,,---,0.02,VWS V13.01,2013-10-12 02:00:00,
2013-10-11 21:30:00,60.9,59.8,29.99,SSW,202,0.0,0.0,96,0.00,,---,0.02,VWS V13.01,2013-10-12 02:30:00,
2013-10-11 22:00:00,60.7,59.3,29.99,SSW,202,0.0,0.0,95,0.00,,---,0.02,VWS V13.01,2013-10-12 03:00:00,
2013-10-11 22:30:00,59.7,58.6,29.99,SSW,202,0.0,0.0,96,0.00,,---,0.02,VWS V13.01,2013-10-12 03:30:00,
2013-10-11 23:00:00,59.2,58.1,29.99,SSW,202,0.0,0.0,96,0.00,,---,0.02,VWS V13.01,2013-10-12 04:00:00,
2013-10-11 23:30:00,59.3,58.2,29.99,SSW,202,0.0,0.0,96,0.00,,---,0.02,VWS V13.01,2013-10-12 04:30:00,